Location: La Sioule Rivi�re
(46.3664°N, 3.3197°E)
Time: 11:56:45
(UTC+00:00)

In-Cosmos 22 Rocket - Pass Details

Date: 29 October 2020
Orbit: 790 x 888 km, 81.2° (Epoch: 23 November)

Event Time Altitude Azimuth Distance (km) Brightness Sun altitude
Rises 17:32:26 0° 350° (N) 3,312 7.3 -10.3°
Reaches altitude 10° 17:34:50 10° 353° (N) 2,386 6.5 -10.7°
Maximum altitude 17:40:11 69° 77° (ENE) 871 4.1 -11.6°
Drops below altitude 10° 17:45:38 10° 161° (SSE) 2,422 6.5 -12.5°
Sets 17:48:04 0° 164° (SSE) 3,366 7.2 -12.9°
